Regional Weather Roundup
Issued by NWS

Home | Current Version | Previous Version | Text Only | Print | Product List | Glossary Off
Versions: 1 2 3 4 5 6 7 8 9 10 11 12 13 14 15 16 17 18 19 20 21 22 23 24 25 26 27 28 29 30 31 32 33 34 35 36 37 38 39 40 41 42 43 44 45 46 47 48 49 50

000
ASUS43 KMPX 212101
RWRMN
WEATHER ROUNDUP FOR MINNESOTA
NATIONAL WEATHER SERVICE TWIN CITIES/CHANHASSEN MN
400 PM CDT FRI JUL 21 2017


NOTE: "FAIR" INDICATES FEW OR NO CLOUDS BELOW 12,000 FEET WITH NO
SIGNIFICANT WEATHER AND/OR OBSTRUCTIONS TO VISIBILITY. N/A MEANS
CURRENT SKY AND/OR WEATHER CONDITIONS ARE NOT AVAILABLE.

MNZ060>063-068>070-212200-
   Twin Cities Metro

CITY           SKY/WX    TMP DP  RH WIND       PRES   REMARKS
TWIN CITIES    CLOUDY    82  68  62 S12G18    29.84S
ST PAUL        CLOUDY    81  70  69 S10       29.85S
CRYSTAL        MOSUNNY   82  67  60 S10       29.83R
BLAINE         PTSUNNY   82  70  65 S14       29.84F
LAKEVILLE      PTSUNNY   79  70  73 S8        29.86F
EDEN PRAIRIE   CLOUDY    83  70  64 S13       29.84S
SOUTH ST PAUL  CLOUDY    81  69  65 SW10      29.84R
LAKE ELMO      FAIR      79  70  73 S9        29.87R
$$
MNZ001>005-007-008-013>017-022>024-027-028-212200-
   Northwest Minnesota

CITY           SKY/WX    TMP DP  RH WIND       PRES   REMARKS
BEMIDJI        MOSUNNY   85  66  52 SE10      29.80F
HALLOCK        PTSUNNY   81  72  74 NE8       29.78S
ROSEAU         PTSUNNY   77  68  73 NE14      29.81F
WARROAD        CLOUDY    75  68  78 NE13G18   29.85R
CROOKSTON      TSTM      70  68  94 N6        29.79R
FOSSTON        MOSUNNY   82  70  65 S7        29.76F
DETROIT LAKES  PTSUNNY   82  72  69 S9        29.81S
MOORHEAD       MOSUNNY   90  73  58 S10       29.76S HX  98
PARK RAPIDS    MOSUNNY   88  69  53 SE14      29.80F HX  92
MAHNOMEN       CLOUDY    85  74  69 S8        29.76F HX  92
$$
MNZ006-009>011-018-025>026-212200-
   North Central Minnesota

CITY           SKY/WX    TMP DP  RH WIND       PRES   REMARKS
BAUDETTE       CLOUDY    79  64  60 NE9       29.83R
FLAG ISLAND    MOSUNNY   70  59  68 NE14      29.88S
INTL FALLS     CLOUDY    74  61  63 E12       29.83F
WASKISH        LGT RAIN  66  64  94 SE12G25   29.79F
BIG FORK       MOSUNNY   81  63  54 SE3       29.83F
LONGVILLE      PTSUNNY   81  68  65 S12       29.83S
GRAND RAPIDS   SUNNY     83  61  47 S13       29.84F
CRANE LAKE     CLOUDY    81  64  57 CALM      29.87F
ORR            MOSUNNY   84  57  39 SE7       29.83F
COOK           MOSUNNY   84  63  48 S7        29.86F
WALKER         FAIR      84  66  53 SE8       29.79F
$$
MNZ012-019>021-037-212200-
   Northeast Minnesota

CITY           SKY/WX    TMP DP  RH WIND       PRES   REMARKS
DULUTH         SUNNY     77  67  71 E9        29.87F
ELY            SUNNY     82  57  42 S7        29.88F
HIBBING        PTSUNNY   82  63  52 SE10      29.85F
EVELETH        SUNNY     83  56  38 S9G16     29.87F
DULUTH HARBOR  SUNNY     68  61  77 E10       29.87F
TWO HARBORS    SUNNY     79  63  57 E10       29.86F
SILVER BAY     SUNNY     73  55  53 NE12      29.89S
GRAND MARAIS     N/A     68  54  60 NE10      29.91F
G MARAIS ARPRT SUNNY     73  55  53 SE5       29.96F
$$
MNZ029>031-032-039>041-046>048-054>057-064-212200-
   West Central Minnesota

CITY           SKY/WX    TMP DP  RH WIND       PRES   REMARKS
FERGUS FALLS   PTSUNNY   84  72  65 S9        29.78S
WHEATON        SUNNY     84  72  65 SE13      29.78F
MORRIS         SUNNY     88  72  58 S16       29.78F HX  94
ALEXANDRIA     SUNNY     83  71  67 S14       29.83F
ELBOW LAKE     FAIR      84  74  70 S12       29.80F HAZE    HX  91
WADENA         MOSUNNY   82  70  65 S9        29.81F
GLENWOOD       SUNNY     84  72  65 S14       29.84S
APPLETON       MOSUNNY   88  72  58 SE10      29.79F HX  94
BENSON         MOSUNNY   84  72  65 S9        29.82F
ORTONVILLE     MOSUNNY   86  73  66 SE9       29.78F HX  93
MADISON        SUNNY     90  73  58 SE12G17   29.79F HX  98
WILLMAR        FAIR      82  73  74 S7        29.84F
$$
MNZ033>034-036-042>043-049>051-058-059-212200-
   Central Minnesota

CITY           SKY/WX    TMP DP  RH WIND       PRES   REMARKS
ST CLOUD       PTSUNNY   81  72  74 S10       29.84F
SAUK CENTRE    MOCLDY    83  72  70 S15       29.83F
PAYNESVILLE    PTSUNNY   82  71  67 S10G17    29.84F
AITKIN         PTSUNNY   81  66  61 S9G18     29.83S
PINE RIVER     PTSUNNY   82  72  69 S10G17    29.85F
BRAINERD       PTSUNNY   82  70  66 S10       29.83F
STAPLES        CLOUDY    82  68  61 S8        29.82F
LONG PRAIRIE   PTSUNNY   81  72  74 SE12      29.83F
LITTLE FALLS   MOSUNNY   82  68  61 S8        29.84S
LITCHFIELD     CLOUDY    84  73  70 S7        29.84S HX  91
BUFFALO        MOSUNNY   81  69  66 S13       29.86R
MAPLE LAKE     CLOUDY    81  73  76 S5        29.86R
HUTCHINSON     PTSUNNY   81  73  77 S12G18    29.86F
$$
MNZ037-044-045-052-053-212200-
   East Central Minnesota

CITY           SKY/WX    TMP DP  RH WIND       PRES   REMARKS
PRINCETON      PTSUNNY   84  72  65 SW7       29.85S
MORA           SUNNY     79  63  57 S8        29.87S
CAMBRIDGE      MOSUNNY   81  68  65 S6        29.84S
RUSH CITY      CLOUDY    77  70  78 S7        29.86S
MOOSE LAKE     PTSUNNY   81  64  57 SE3       29.84S
HINCKLEY       MOCLDY    81  70  69 SE9       29.85S
CLOQUET        SUNNY     79  61  53 E8        29.86F
MCGREGOR       PTSUNNY   82  63  51 SE13      29.85S
$$
MNZ071>073-080-081-089-090-097-098-212200-
   Southwest Minnesota

CITY           SKY/WX    TMP DP  RH WIND       PRES   REMARKS
MONTEVIDEO     MOSUNNY   90  73  58 S7        29.81F HX  98
GRANITE FALLS  PTSUNNY   85  75  70 SE14      29.83F HX  94
CANBY          MOSUNNY   88  73  61 E3        29.80F HX  95
REDWOOD FALLS  PTSUNNY   82  72  71 SE16      29.84F
OLIVIA         PTSUNNY   81  72  74 S13G20    29.84F
PIPESTONE      MOSUNNY   82  70  65 S10       29.86F
WINDOM         SUNNY     79  70  73 SE18      29.88S
WORTHINGTON    CLOUDY    79  72  79 E12       29.87F
JACKSON        CLOUDY    77  70  78 SE9       29.89F
SLAYTON        MOSUNNY   80  70  70 SE13      29.88S
$$
MNZ065>067-074>077-082>085-091>093-212200-
   South Central Minnesota

CITY           SKY/WX    TMP DP  RH WIND       PRES   REMARKS
MANKATO        MOSUNNY   79  70  74 SE13      29.87S
NEW ULM        MOSUNNY   81  70  69 S12G20    29.86F
ST JAMES       MOSUNNY   79  70  73 SE16      29.89R
FAIRMONT       PTSUNNY   76  68  76 SE15      29.88S
GLENCOE        PTSUNNY   82  75  80 S13       29.85S
FARIBAULT      CLOUDY    79  68  69 SE9       29.87F
OWATONNA       MOSUNNY   79  68  69 SE14G21   29.88R
WASECA         CLOUDY    77  68  73 SE12      29.90R
ALBERT LEA     CLOUDY    75  68  78 SE15      29.89S
$$
MNZ078>079-086>088-094>096-212200-
   Southeast Minnesota

CITY           SKY/WX    TMP DP  RH WIND       PRES   REMARKS
ROCHESTER      CLOUDY    73  69  87 SE15G22   29.90F
RED WING       CLOUDY    79  64  61 S8        29.84F
STANTON        CLOUDY    78  67  68 S12       29.85F
DODGE CENTER   PTSUNNY   75  64  69 SE15      29.89S
WINONA         CLOUDY    72  70  94 SE7       29.90F
AUSTIN         CLOUDY    73  66  78 SE10      29.92R
PRESTON        CLOUDY    70  66  85 SE9       29.93R
$$
ABBREVIATIONS USED IN REMARKS
   TC - TEMPERATURES IN CELSIUS
  WCI - WIND CHILL INDEX
   HX - HEAT INDEX
  VSB - VISIBILITY
$$



USA.gov is the U.S. government's official web portal to all federal, state and local government web resources and services.